Flag for United Kingdom Weather past 2 weeks in Portsmouth, England, United Kingdom

Now
52 °F

Fog.


Feels Like: 52 °F
Forecast: 60 / 69 °F
Wind: No wind

Location: Southampton / Weather Centre

Current Time: Jul 31, 2014 at 7:22:23 AM

Latest Report: Jul 31, 2014 at 6:50 AM


Visibility: N/A

Pressure: 30.01 "Hg

Humidity: 100%

Dew point: 52 °F

Location of PortsmouthLocation

Historic Weather in Portsmouth — Graph

°F

Portsmouth temperature yesterday

Maximum temperature yesterday: 75 °F (at 4:20 PM)
Minimum temperature yesterday: 55 °F (at 5:50 AM)
Average temperature yesterday: 67 °F

Past Weeks' High & Low Weather Summary

 TemperatureHumidityPressure
High82 °F (Jul 24, 3:20 PM)100% (Jul 16, 6:20 AM)30.21 "Hg (Jul 16, 6:20 AM)
Low48 °F (Jul 31, 5:50 AM)35% (Jul 24, 3:20 PM)29.71 "Hg (Jul 19, 5:20 PM)
Average70 °F60%30.01 "Hg
* Reported Jul 16 6:20 AM — Jul 31 6:20 AM, Portsmouth, Weather by CustomWeather, © 2014

Note: Actual official high and low records may vary slightly from our data, if they occured in-between our weather recording intervals... More about our weather records

Advertising

Portsmouth weather history for previous 24 hours

 ConditionsComfort  
Time TempWeatherWind HumidityBarometerVisibility
6:20 AM
Jul 31
48 °FFog.No wind100%30.01 "HgN/A
5:50 AM48 °FFog.No wind94%30.01 "HgN/A
10:50 PM
Jul 30
63 °FPassing clouds.5 mph59%30.01 "HgN/A
10:20 PM63 °FPassing clouds.5 mph59%30.01 "HgN/A
9:50 PM64 °FSunny.6 mph56%30.01 "Hg10 mi
9:20 PM66 °FPassing clouds.6 mph52%30.01 "HgN/A
8:50 PM68 °FPassing clouds.6 mph49%30.01 "HgN/A
8:20 PM68 °FPassing clouds.8 mph49%30.01 "HgN/A
7:50 PM70 °FPassing clouds.9 mph46%29.98 "HgN/A
7:20 PM72 °FPassing clouds.10 mph44%29.98 "HgN/A
6:50 PM72 °FPassing clouds.10 mph47%29.98 "HgN/A
6:20 PM73 °FPassing clouds.10 mph47%29.98 "HgN/A
5:50 PM75 °FPassing clouds.9 mph47%29.98 "HgN/A
5:20 PM73 °FPassing clouds.8 mph50%29.98 "HgN/A
4:50 PM73 °FPassing clouds.9 mph47%29.98 "HgN/A
4:20 PM75 °FPassing clouds.7 mph44%29.98 "HgN/A
3:50 PM73 °FPassing clouds.8 mph47%30.01 "HgN/A
3:20 PM73 °FPassing clouds.6 mph44%30.01 "HgN/A
2:50 PM73 °FPassing clouds.8 mph44%30.01 "HgN/A
2:20 PM73 °FPassing clouds.3 mph47%30.01 "HgN/A
1:50 PM70 °FPassing clouds.6 mph50%30.01 "HgN/A
1:20 PM72 °FPassing clouds.5 mph47%30.01 "HgN/A
12:50 PM72 °FPassing clouds.7 mph44%30.04 "HgN/A
12:20 PM70 °FPassing clouds.6 mph46%30.04 "HgN/A
11:50 AM68 °FPassing clouds.7 mph49%30.04 "HgN/A
11:20 AM68 °FPassing clouds.7 mph49%30.04 "HgN/A
10:50 AM66 °FPassing clouds.8 mph52%30.04 "HgN/A
10:20 AM64 °FPassing clouds.8 mph56%30.04 "HgN/A
9:50 AM64 °FPassing clouds.5 mph56%30.04 "HgN/A
9:20 AM64 °FPassing clouds.6 mph56%30.04 "HgN/A
8:50 AM64 °FPassing clouds.7 mph56%30.04 "HgN/A
8:20 AM61 °FSunny.3 mph68%30.04 "Hg10 mi
7:50 AM59 °FPassing clouds.5 mph68%30.04 "HgN/A
7:20 AM57 °FSunny.3 mph72%30.04 "Hg10 mi
Weather by CustomWeather, © 2014

See weather overviewHow to use our weather pages